Zurück zum Katalog

CZ-6A DEB

AktivPO
NORAD 55208·DEBRIS·🇨🇳 China

Gestartet Nov 11, 2022 von Taiyuan Satellite Launch Center

Loading…

Nächste Überflüge (nächste 24 Stunden)

TLE

AktuellSource: Space-Track

Epoche: Sep 14, 2026, 04:19 UTC

1 55208U 22151VZ  26257.17997189  .00026022  00000-0  21990-2 0  9999
2 55208  98.6232 341.8831 0038122 322.6228  37.2340 14.97495053198814

Verfolge CZ-6A DEB in Echtzeit mit AllMySat

Download on the App Store